Location: Newark
(35.5300°N, 14.3000°E)
Time: 20:32:11
(UTC+00:00)

S-56A Canister/Altair - Pass Details

Date: 16 November 2019
Orbit: 632 x 2500 km, 38.9° (Epoch: 14 December)

Event Time Altitude Azimuth Distance (km) Brightness Sun altitude
Rises 19:06:51 0° 273° (W) 4,225 12.2 -38.8°
Reaches altitude 10° 19:10:14 10° 277° (W) 2,967 11.2 -39.5°
Enters shadow 19:13:55 30° 287° (WNW) 1,630 9.5 -40.3°
